User: anonymous   Login
Location: Petruro
(41.0333°N, 14.7833°E)
Time: 17:59:12
(UTC+00:00)
Language:

Cosmos 1408 - Orbit

View from above orbital plane
View from above orbital plane
View from above satellite
View from above satellite

Ground track
Ground track

The orbit data is extracted from the following two-line orbital elements,

1 13552U 82092A   21263.81115641  .00001784  00000-0  61750-4 0  9991
2 13552  82.5695 178.8713 0015982 310.0918  49.8920 15.29069675134364
Epoch (UTC): 20 September 2021 19:28:03
Eccentricity: 0.0015982
inclination: 82.5695°
perigee height: 467 km
apogee height: 489 km
right ascension of ascending node: 178.8713°
argument of perigee: 310.0918°
revolutions per day: 15.29069675
mean anomaly at epoch: 49.8920°
orbit number at epoch: 13436

The dashed part of the orbit path shows where the satellite is in the earth's shadow,  

DLR